Tacoma Narrows, WA

12:07 PM PDT on April 25, 2017 (GMT -0700)
Tacoma Narrows

Weather History for KTIW - February, 2013

Change the Weather History Date:

Saturday, February 2, 2013

  Actual Average Record
Temperature  
Mean Temperature 42 °F -  
Max Temperature 44 °F 46 °F 59 °F (2005)
Min Temperature 39 °F 37 °F 28 °F (2011)
Degree Days  
Heating Degree Days 24    
Moisture  
Dew Point 38 °F    
Average Humidity 89    
Maximum Humidity 93    
Minimum Humidity 81    
Precipitation  
Precipitation 0.00 in - - ()
Sea Level Pressure  
Sea Level Pressure 30.30 in    
Wind  
Wind Speed 4 mph (NNE)    
Max Wind Speed 10 mph    
Max Gust Speed -    
Visibility 5 miles    
Events Fog    
Averages and records for this station are not official NWS values.
T = Trace of Precipitation, MM = Missing Value Source: NWS Daily Summary

Daily Weather History Graph

Daily Weather History Graph

Search for Another Location

Airport or City:

Trip Planner

Search our weather history database for the weather conditions in past years. The results will help you decide how hot, cold, wet, or windy it might be!

Date:

Astronomy

Feb. 02, 2013 Rise Set
Actual Time 7:34 AM PST 5:14 PM PST
Civil Twilight 7:01 AM PST 5:47 PM PST
Nautical Twilight 6:24 AM PST 6:23 PM PST
Astronomical Twilight 5:49 AM PST 6:59 PM PST
Moon No Moon Rise 10:16 AM PST (2/2)
Length of Visible Light 10h 45m
Length of Day
9h 40m
Waning Gibbous, 58% of the Moon is Illuminated
Feb 2
Waning Gibbous
Feb 3
Last Quarter
Feb 9
New
Feb 17
First Quarter
Feb 25
Full

Hourly Weather History & Observations

Time (PST) Temp. Windchill Dew Point Humidity Pressure Visibility Wind Dir Wind Speed Gust Speed Precip Events Conditions
12:53 AM 44.6 °F 40.7 °F 41.0 °F 87% 30.37 in 7.0 mi North 6.9 mph - N/A   Overcast
1:53 AM 44.1 °F 40.1 °F 41.0 °F 89% 30.38 in 7.0 mi North 6.9 mph - N/A   Overcast
2:53 AM 43.0 °F 38.8 °F 41.0 °F 93% 30.38 in 7.0 mi NNE 6.9 mph - N/A   Overcast
3:53 AM 42.8 °F 37.0 °F 39.2 °F 87% 30.35 in 9.0 mi North 10.4 mph - N/A   Overcast
4:53 AM 42.1 °F 40.2 °F 39.9 °F 92% 30.35 in 7.0 mi NNE 3.5 mph - N/A   Overcast
5:17 AM 42.8 °F - 39.2 °F 87% 30.33 in 7.0 mi Calm Calm - N/A   Overcast
5:53 AM 42.1 °F 37.7 °F 39.0 °F 89% 30.33 in 9.0 mi North 6.9 mph - N/A   Overcast
6:53 AM 41.0 °F 35.8 °F 39.0 °F 93% 30.32 in 8.0 mi NNE 8.1 mph - N/A   Overcast
7:53 AM 41.0 °F 39.0 °F 39.0 °F 93% 30.33 in 3.0 mi North 3.5 mph - N/A   Overcast
8:53 AM 41.0 °F 37.1 °F 39.0 °F 93% 30.34 in 3.0 mi North 5.8 mph - N/A   Overcast
9:37 AM 42.8 °F 41.1 °F 37.4 °F 81% 30.33 in 10.0 mi NE 3.5 mph - N/A   Overcast
9:53 AM 42.1 °F 39.2 °F 37.9 °F 85% 30.34 in 6.0 mi NNE 4.6 mph - N/A   Overcast
10:53 AM 42.1 °F 39.2 °F 37.9 °F 85% 30.34 in 7.0 mi NNW 4.6 mph - N/A   Overcast
11:53 AM 42.1 °F - 37.9 °F 85% 30.32 in 10.0 mi Calm Calm - N/A   Overcast
12:53 PM 42.1 °F - 37.9 °F 85% 30.31 in 10.0 mi Calm Calm - N/A   Overcast
1:53 PM 43.0 °F - 37.9 °F 82% 30.30 in 10.0 mi Calm Calm - N/A   Overcast
2:53 PM 42.1 °F - 37.9 °F 85% 30.29 in 10.0 mi Calm Calm - N/A   Overcast
3:53 PM 43.0 °F - 37.9 °F 82% 30.28 in 9.0 mi Calm Calm - N/A   Overcast
4:53 PM 42.1 °F - 37.0 °F 82% 30.27 in 5.0 mi Calm Calm - N/A   Haze
5:53 PM 41.0 °F - 37.0 °F 86% 30.26 in 5.0 mi Calm Calm - N/A   Overcast
6:53 PM 41.0 °F - 37.9 °F 89% 30.27 in 4.0 mi Calm Calm - N/A   Overcast
7:00 PM 41.0 °F - 37.4 °F 87% 30.26 in 4.0 mi Calm Calm - N/A   Overcast
7:53 PM 39.9 °F - 37.0 °F 89% 30.27 in 3.0 mi Calm Calm - N/A   Overcast
8:16 PM 39.2 °F - 37.4 °F 93% 30.27 in 2.5 mi Calm Calm - N/A   Overcast
8:28 PM 39.2 °F - 37.4 °F 93% 30.27 in 3.0 mi Calm Calm - N/A   Overcast
8:53 PM 39.2 °F - 37.4 °F 93% 30.27 in 3.0 mi Calm Calm - N/A   Overcast
9:11 PM 39.2 °F - 37.4 °F 93% 30.28 in 2.5 mi Calm Calm - N/A   Overcast
9:39 PM 39.2 °F - 37.4 °F 93% 30.27 in 1.2 mi Calm Calm - N/A   Overcast
9:53 PM 39.9 °F - 37.9 °F 93% 30.29 in 1.8 mi Calm Calm - N/A   Overcast
10:00 PM 39.2 °F - 37.4 °F 93% 30.27 in 2.0 mi Calm Calm - N/A   Overcast
10:16 PM 39.2 °F 37.0 °F 37.4 °F 93% 30.27 in 0.8 mi SSE 3.5 mph - N/A   Overcast
10:27 PM 39.2 °F 37.0 °F 37.4 °F 93% 30.27 in 0.5 mi South 3.5 mph - N/A Fog Fog
10:38 PM 39.2 °F 35.9 °F 37.4 °F 93% 30.27 in 0.2 mi South 4.6 mph - N/A Fog Fog
10:53 PM 39.0 °F 35.7 °F 37.0 °F 93% 30.28 in 0.2 mi South 4.6 mph - N/A Fog Fog
11:53 PM 39.0 °F - 37.0 °F 93% 30.30 in 0.2 mi Calm Calm - N/A Fog Fog